x

8726724 - Clearwater Beach, Fl (cwbf1) Weather Station

6:24pm - Thu 25th Dec 2014 All times are EST. -5 hours from GMT.

  • Wind
    7mph, 8mph gusts
  • Sea Temp 67°f
  • Air Temp 61°f
  • Sea Pressure 1022.3mb
  • 8726724 - Clearwater Beach, Fl
  • 8726724 - Clearwater Beach, Fl

More Historic Weather Station data

Upgrade to MSW Pro to gain access to the past 30 days of data for over 8000 Wavebouys and Weather Stations around the globe.

Join Pro

Comparision Forecast

View Surf forecast
   
Thu 12/25 6:24pm 7 8 mph 1022.3mb 67f 61f
6:18pm 7 8 mph 1022.4mb 67f 61f
6:12pm 7 8 mph 1022.4mb 67f 61f
6:06pm 7 8 mph 1022.3mb 67f 61f
5:54pm 6 7 mph 1022.3mb 67f 61f
5:48pm 7 8 mph 1022.1mb 67f 61f
5:42pm 6 7 mph 1022mb 67f 61f
5:36pm 6 7 mph 1021.9mb 67f 61f
5:24pm 5 7 mph 1021.9mb 67f 61f
5:12pm 6 7 mph 1021.8mb 67f 61f
5:00pm 5 6 mph 1021.6mb 67f 61f
4:54pm 5 7 mph 1021.6mb 67f 61f
4:48pm 3 7 mph 1021.5mb 67f 61f
4:42pm 6 8 mph 1021.5mb 67f 61f
4:36pm 5 6 mph 1021.5mb 67f 61f
4:30pm 5 8 mph 1021.5mb 67f 61f
4:24pm 8 9 mph 1021.5mb 67f 61f
4:18pm 8 11 mph 1021.5mb 67f 61f
4:12pm 6 10 mph 1021.3mb 67f 61f
4:06pm 7 10 mph 1021.3mb 67f 61f
4:00pm 6 9 mph 1021.3mb 67f 61f
3:54pm 6 9 mph 1021.3mb 67f 61f
3:48pm 7 9 mph 1021.3mb 67f 61f
3:42pm 6 9 mph 1021.4mb 67f 60f
3:36pm 9 11 mph 1021.4mb 67f 60f
3:30pm 10 13 mph 1021.5mb 67f 60f
3:24pm 10 11 mph 1021.5mb 67f 60f
3:18pm 9 13 mph 1021.6mb 67f 60f
3:12pm 11 15 mph 1021.5mb 67f 60f
3:06pm 13 15 mph 1021.5mb 67f 60f
3:00pm 8 14 mph 1021.5mb 67f 60f
2:54pm 13 15 mph 1021.5mb 67f 60f
2:48pm 13 16 mph 1021.5mb 67f 60f
2:42pm 9 15 mph 1021.7mb 67f 60f
2:36pm 10 16 mph 1021.6mb 67f 60f
2:30pm 14 15 mph 1021.6mb 67f 60f
2:24pm 10 17 mph 1021.5mb 67f 60f
2:18pm 14 17 mph 1021.7mb 67f 60f
2:12pm 14 18 mph 1021.8mb 67f 60f
2:06pm 13 16 mph 1021.9mb 67f 60f
2:00pm 13 15 mph 1021.8mb 67f 60f
1:54pm 13 16 mph 1021.8mb 67f 60f
1:48pm 14 17 mph 1021.8mb 67f 60f
1:42pm 14 17 mph 1021.7mb 67f 60f
1:36pm 14 16 mph 1021.7mb 67f 60f
1:30pm 15 17 mph 1021.7mb 67f 60f
1:24pm 10 16 mph 1021.8mb 67f 61f
1:18pm 11 14 mph 1021.9mb 67f 61f
1:12pm 14 15 mph 1021.9mb 67f 60f
1:06pm 14 15 mph 1021.9mb 67f 61f
1:00pm 8 13 mph 1022.1mb 67f 61f
12:54pm 11 15 mph 1022.1mb 67f 61f
12:48pm 11 15 mph 1022.1mb 67f 61f
12:42pm 11 15 mph 1022.1mb 67f 61f
12:36pm 10 14 mph 1022.1mb 67f 61f
12:30pm 13 14 mph 1022.2mb 67f 61f
12:24pm 11 14 mph 1022.3mb 67f 61f
12:18pm 10 14 mph 1022.4mb 67f 61f
12:12pm 13 16 mph 1022.6mb 67f 61f
12:06pm 11 16 mph 1022.6mb 67f 61f
12:00pm 15 17 mph 1022.7mb 67f 61f
11:54am 14 18 mph 1022.9mb 67f 61f
11:48am 16 18 mph 1022.8mb 67f 61f
11:42am 16 21 mph 1022.9mb 67f 61f
11:36am 16 17 mph 1022.8mb 67f 61f
11:30am 14 16 mph 1022.8mb 67f 62f
11:24am 11 14 mph 1022.7mb 67f 62f
11:18am 11 13 mph 1022.9mb 67f 62f
11:12am 10 14 mph 1023mb 67f 62f
11:06am 13 14 mph 1023mb 67f 62f
11:00am 9 14 mph 1023.1mb 67f 62f
10:54am 10 13 mph 1023.1mb 67f 62f
10:48am 10 14 mph 1023.1mb 67f 62f
10:42am 11 14 mph 1023.1mb 67f 62f
10:36am 9 13 mph 1023.1mb 67f 62f
10:30am 11 14 mph 1023mb 67f 62f
10:24am 11 15 mph 1023.1mb 67f 61f
10:18am 13 17 mph 1023mb 67f 61f
10:12am 13 15 mph 1022.9mb 67f 61f
10:06am 13 15 mph 1022.9mb 67f 61f
10:00am 13 15 mph 1022.8mb 67f 61f
9:54am 13 16 mph 1022.7mb 67f 61f
9:48am 13 17 mph 1022.9mb 67f 61f
9:42am 15 17 mph 1022.7mb 67f 61f
9:36am 14 17 mph 1022.6mb 67f 61f
9:30am 14 16 mph 1022.6mb 67f 61f
9:18am 14 17 mph 1022.4mb 67f 61f
9:12am 14 17 mph 1022.2mb 67f 61f
9:06am 16 22 mph 1021.9mb 67f 61f
9:00am 21 23 mph 1021.8mb 67f 61f
8:54am 21 22 mph 1021.8mb 67f 62f
8:48am 20 22 mph 1021.7mb 67f 62f
8:42am 18 22 mph 1021.4mb 67f 62f
8:36am 18 22 mph 1021.3mb 67f 62f
8:30am 20 22 mph 1021mb 67f 62f
8:24am 16 18 mph 1020.8mb 67f 62f
8:18am 15 21 mph 1020.9mb 67f 62f
8:12am 17 21 mph 1021mb 67f 62f
8:06am 18 21 mph 1020.9mb 67f 62f
8:00am 18 22 mph 1020.8mb 67f 62f
7:54am 18 20 mph 1020.6mb 67f 62f
7:48am 17 20 mph 1020.5mb 67f 62f
7:36am 15 17 mph 1020.2mb 67f 62f
7:30am 15 18 mph 1020mb 67f 62f
7:18am 16 21 mph 1019.9mb 67f 62f
7:12am 14 22 mph 1019.8mb 67f 62f
7:06am 16 18 mph 1019.7mb 67f 62f
7:00am 16 20 mph 1019.5mb 67f 62f
6:48am 16 20 mph 1019.2mb 67f 62f
6:42am 17 21 mph 1019.1mb 67f 62f
6:36am 16 20 mph 1019.1mb 67f 63f
6:24am 15 16 mph 1018.9mb 68f 62f
6:18am 15 17 mph 1018.8mb 68f 62f
6:12am 14 17 mph 1018.5mb 68f 63f
6:06am 16 18 mph 1018.4mb 68f 62f
6:00am 15 17 mph 1018.2mb 68f 63f
5:54am 15 18 mph 1018.2mb 68f 63f
5:48am 15 21 mph 1018.1mb 68f 63f
5:42am 17 21 mph 1018.2mb 68f 63f
5:36am 18 22 mph 1018.1mb 68f 63f
5:30am 18 22 mph 1017.9mb 68f 63f
5:24am 18 21 mph 1017.9mb 68f 63f
5:18am 16 21 mph 1017.9mb 68f 63f
5:12am 17 22 mph 1017.7mb 68f 63f
5:06am 17 21 mph 1017.5mb 68f 63f
4:54am 16 20 mph 1017.4mb 68f 63f
4:48am 16 22 mph 1017.5mb 68f 63f
4:42am 17 20 mph 1017.5mb 68f 63f
4:36am 17 21 mph 1017.5mb 68f 63f
4:30am 17 22 mph 1017.3mb 68f 63f
4:18am 20 23 mph 1017mb 68f 63f
4:12am 21 23 mph 1017mb 68f 63f
4:06am 22 23 mph 1016.9mb 68f 63f
3:54am 18 23 mph 1017mb 68f 63f
3:48am 21 24 mph 1017.1mb 68f 64f
3:42am 22 23 mph 1017mb 68f 64f
3:36am 18 23 mph 1016.8mb 68f 64f
3:30am 21 23 mph 1016.7mb 68f 64f
3:24am 20 23 mph 1016.5mb 68f 64f
3:18am 21 23 mph 1016.6mb 68f 64f
3:12am 21 24 mph 1016.6mb 68f 64f
3:06am 22 25 mph 1016.7mb 68f 64f
3:00am 22 26 mph 1016.5mb 68f 64f
2:54am 22 24 mph 1016.3mb 68f 64f
2:48am 23 28 mph 1016.2mb 68f 65f
2:42am 24 28 mph 1016.2mb 68f 65f
2:36am 22 25 mph 1016mb 68f 65f
2:30am 22 24 mph 1015.9mb 69f 65f
2:24am 23 26 mph 1015.7mb 68f 66f
2:18am 17 20 mph 1015.4mb 68f 66f
2:12am 15 17 mph 1015.4mb 68f 67f
2:06am 15 17 mph 1015.3mb 68f 67f
2:00am 14 16 mph 1015.3mb 69f 66f
1:54am 13 18 mph 1015.1mb 69f 66f
1:48am 16 20 mph 1015.2mb 69f 66f
1:36am 18 20 mph 1015.2mb 69f 66f
1:30am 17 20 mph 1015.2mb 69f 66f
1:24am 17 21 mph 1015.3mb 69f 66f
1:12am 18 22 mph 1015.3mb 69f 66f
1:06am 15 17 mph 1015.2mb 69f 66f
1:00am 15 18 mph 1015.5mb 69f 66f
12:54am 17 20 mph 1015.4mb 69f 66f
12:48am 17 18 mph 1015.3mb 69f 66f
12:42am 15 17 mph 1015.3mb 69f 66f
12:36am 15 17 mph 1015.4mb 69f 66f
12:30am 15 17 mph 1015.4mb 69f 66f
12:24am 14 20 mph 1015.4mb 69f 66f
12:18am 17 20 mph 1015.5mb 69f 66f
12:06am 17 21 mph 1015.5mb 69f 67f
Wed 12/24 11:54pm 17 20 mph 1015.5mb 69f 67f
11:48pm 16 20 mph 1015.5mb 69f 67f
11:42pm 17 20 mph 1015.5mb 69f 67f
11:36pm 16 20 mph 1015.7mb 69f 67f
11:30pm 13 14 mph 1015.6mb 69f 67f
11:24pm 10 13 mph 1015.8mb 69f 68f
11:18pm 11 13 mph 1015.6mb 69f 67f
11:12pm 11
mph
1015.5mb 69f 67f
11:06pm 10 13 mph 1015.7mb 69f 67f
11:00pm 10 11 mph 1015.7mb 69f 67f
10:54pm 9 10 mph 1015.5mb 69f 67f
10:42pm 10 11 mph 1015.4mb 69f 67f
10:36pm 10 11 mph 1015.4mb 69f 67f
10:30pm 10 13 mph 1015.3mb 69f 67f
10:24pm 10 13 mph 1015.2mb 69f 67f
10:18pm 10 13 mph 1015.1mb 69f 67f
10:12pm 10 13 mph 1015.1mb 69f 67f
10:06pm 11 14 mph 1015.1mb 69f 67f
9:54pm 14 15 mph 1015mb 69f 67f
9:48pm 14 16 mph 1015mb 69f 67f
9:42pm 14 16 mph 1015mb 69f 67f
9:36pm 15 17 mph 1015mb 69f 67f
9:30pm 16 18 mph 1014.9mb 69f 67f
9:24pm 17 20 mph 1015mb 69f 67f
9:12pm 18 26 mph 1014.9mb 69f 67f
9:06pm 22 25 mph 1014.6mb 69f 68f
8:54pm 18 22 mph 1014.1mb 69f -
8:48pm 17 20 mph 1014mb 69f 68f
8:42pm 16 21 mph 1013.7mb 69f 68f
8:30pm 22 24 mph 1013.5mb 69f 68f
8:24pm 22 24 mph 1013.4mb 69f 68f
8:12pm 14 16 mph 1013.3mb 69f 68f
8:00pm 14 16 mph 1013mb 69f 69f
7:54pm 14 17 mph 1012.8mb 69f 69f
7:42pm 9 11 mph 1012.4mb 69f 69f
7:36pm 9 11 mph 1012.4mb 69f 69f
7:30pm 10 11 mph 1012.3mb 69f 69f
7:18pm 9 11 mph 1012.1mb 69f 69f
7:12pm 10 11 mph 1011.9mb 69f 69f
7:06pm 10 11 mph 1011.8mb 69f 69f
7:00pm 10 11 mph 1011.6mb 69f 69f
6:54pm 9 11 mph 1011.6mb 69f 69f
6:48pm 10 11 mph 1011.3mb 69f 69f
6:42pm 10
mph
1011.1mb 69f 69f
6:36pm 8 9 mph 1011.1mb 69f 69f
6:30pm 8 9 mph 1011mb 69f 69f
6:18pm 11 14 mph 1011mb 69f 69f
6:12pm 13 14 mph 1010.8mb 69f 69f
6:06pm 11 14 mph 1010.9mb 69f 69f
6:00pm 13 16 mph 1011.2mb 69f 69f
5:48pm 14 15 mph 1010.9mb 69f 69f
5:42pm 14 15 mph 1010.8mb 69f 69f
5:36pm 15 16 mph 1010.8mb 69f 69f
5:24pm 15 18 mph 1010.4mb 69f 69f
5:18pm 15 18 mph 1010.6mb 69f 69f
5:06pm 18 23 mph 1010.4mb 68f 70f
5:00pm 21 24 mph 1010.5mb 68f 70f
4:54pm 20 26 mph 1010.5mb 68f 70f
4:42pm 21 25 mph 1010.3mb 68f 70f
4:36pm 23 30 mph 1009.3mb 68f 73f
4:30pm 22 37 mph 1009.2mb 68f 75f
4:18pm 26 31 mph 1009.2mb 68f 75f
4:12pm 23 31 mph 1009mb 68f 74f
4:06pm 25 31 mph 1009.1mb 68f 75f
4:00pm 25 32 mph 1009.1mb 68f 76f
3:54pm 25 33 mph 1009.1mb 68f 75f
3:48pm 24 34 mph 1009.1mb 68f 76f
3:42pm 22 30 mph 1009.1mb 68f 75f
3:36pm 28 32 mph 1009.1mb 68f 75f
3:30pm 29 33 mph 1009.3mb 68f 75f
3:24pm 24 36 mph 1009.4mb 68f 76f
3:18pm 24 32 mph 1009.4mb 68f 76f
3:12pm 29 32 mph 1009.5mb 68f 76f
3:06pm 25 30 mph 1009.4mb 68f 75f
3:00pm 25 34 mph 1009.3mb 68f -
2:54pm 25 32 mph 1009.3mb 68f 75f
2:48pm 23 31 mph 1009.3mb 68f 75f
2:42pm 24 33 mph 1009.2mb 68f 75f
2:36pm 26 33 mph 1009.3mb 68f 75f
2:30pm 24 31 mph 1009.4mb 68f 75f
2:24pm 22 32 mph 1009.3mb 68f 75f
2:12pm 21 29 mph 1009.3mb 68f 76f
2:06pm 23 33 mph 1009.5mb 68f 76f
2:00pm 23 31 mph 1009.4mb 68f 76f
1:54pm 28 33 mph 1009.4mb 68f 76f
1:48pm 24 32 mph 1009.6mb 68f 76f
1:42pm 24 38 mph 1009.6mb 68f 76f
1:36pm 26 30 mph 1009.7mb 68f 76f
1:30pm 24 34 mph 1009.6mb 68f 76f
1:24pm 26 33 mph 1009.5mb 68f 76f
1:18pm 26 33 mph 1009.6mb 68f 76f
1:12pm 25 31 mph 1009.7mb 68f 76f
1:06pm 24 33 mph 1009.9mb 68f 76f
1:00pm 26 31 mph 1010.1mb 68f 75f
12:54pm 23 32 mph 1010.2mb 68f 75f
12:48pm 26 30 mph 1010.3mb 68f 75f
12:42pm 24 31 mph 1010.4mb 68f 75f
12:36pm 23 31 mph 1010.5mb 68f 75f
12:30pm 24 32 mph 1010.7mb 68f 75f
12:24pm 24 33 mph 1010.7mb 68f 75f
12:18pm 22 30 mph 1010.8mb 68f 75f
12:12pm 26 34 mph 1011mb 68f 75f
12:06pm 25 31 mph 1011.1mb 68f 75f
12:00pm 23 30 mph 1011.2mb 68f 75f
11:54am 21 31 mph 1011.4mb 68f 75f
11:48am 25 31 mph 1011.4mb 68f 75f
11:42am 22 32 mph 1011.6mb 68f 75f
11:36am 23 33 mph 1011.5mb 68f 76f
11:30am 22 34 mph 1011.4mb 68f 75f
11:24am 25 31 mph 1011.4mb 68f 76f
11:18am 25 32 mph 1011.4mb 68f 76f
11:12am 24 29 mph 1011.5mb 68f 75f
11:06am 22 32 mph 1011.6mb 68f 75f
11:00am 24 33 mph 1011.5mb 68f 75f
10:54am 22 33 mph 1011.4mb 68f 76f
10:48am 22 31 mph 1011.5mb 68f 76f
10:42am 18 32 mph 1011.4mb 68f 75f
10:36am 25 31 mph 1011.4mb 68f 76f
10:30am 23 30 mph 1011.5mb 68f 76f
10:24am 25 33 mph 1011.5mb 68f 76f
10:18am 22 29 mph 1011.5mb 68f 76f
10:12am 22 29 mph 1011.4mb 68f 76f
10:06am 22 29 mph 1011.4mb 68f 76f
10:00am 24 28 mph 1011.4mb 68f 75f
9:54am 20 25 mph 1011.4mb 68f 75f
9:48am 21 26 mph 1011.3mb 68f 76f
9:42am 20 28 mph 1011.4mb 68f 75f
9:36am 20 31 mph 1011.3mb 68f 75f
9:30am 25 29 mph 1011.3mb 68f 76f
9:24am 21 26 mph 1011.2mb 68f 75f
9:18am 20 25 mph 1011.1mb 67f 75f
9:12am 17 24 mph 1011.2mb 67f 75f
9:06am 18 23 mph 1011.1mb 67f 75f
9:00am 16 26 mph 1011.1mb 67f 75f
8:54am 20 24 mph 1011.1mb 67f 75f
8:48am 21 25 mph 1011.1mb 67f 75f
8:42am 18 24 mph 1011mb 67f 75f
8:30am 17 24 mph 1010.9mb 67f 75f
8:24am 16 25 mph 1010.7mb 67f 75f
8:18am 17 24 mph 1010.6mb 67f 75f
8:12am 17 24 mph 1010.7mb 67f 74f
8:06am 18 25 mph 1010.7mb 67f 75f
8:00am 21 25 mph 1010.7mb 67f 75f
7:54am 21 28 mph 1010.7mb 67f 74f
7:42am 17 24 mph 1010.5mb 67f 74f
7:36am 16 24 mph 1010.3mb 67f 74f
7:30am 20 23 mph 1010.2mb 67f 75f
7:24am 20 22 mph 1010.1mb 67f 74f
7:18am 22 26 mph 1010.1mb 67f 75f
7:12am 16 21 mph 1010.1mb 67f 74f
7:00am 15 22 mph 1009.9mb 67f 74f
6:54am 15 21 mph 1010mb 67f 74f
6:42am 15 25 mph 1009.8mb 67f 74f
6:36am 16 23 mph 1009.7mb 67f 74f
6:30am 17 23 mph 1009.6mb 67f 74f
6:18am 17 24 mph 1009.4mb 67f 74f
6:06am 16 25 mph 1009.5mb 67f 74f
6:00am 15 23 mph 1009.4mb 67f 74f
5:54am 17 22 mph 1009.4mb 67f 74f
5:48am 17 22 mph 1009.5mb 67f 74f
5:42am 17 24 mph 1009.6mb 67f 74f
5:36am 15 23 mph 1009.7mb 67f 74f
5:30am 15 21 mph 1009.6mb 67f 74f
5:24am 17 24 mph 1009.6mb 67f 74f
5:12am 18 22 mph 1009.6mb 67f 74f
5:06am 16 21 mph 1009.6mb 67f 74f
4:54am 15 21 mph 1010mb 67f 74f
4:48am 17 24 mph 1010mb 67f 74f
4:36am 18 30 mph 1009.7mb 67f 74f
4:30am 20 29 mph 1009.7mb 67f 74f
4:24am 23 31 mph 1009.7mb 67f 74f
4:18am 18 26 mph 1009.8mb 67f 74f
4:12am 17 23 mph 1009.9mb 67f 74f
4:00am 16 24 mph 1009.9mb 67f 74f
3:54am 18 24 mph 1009.9mb 67f 74f
3:42am 16 21 mph 1010mb 67f 74f
3:36am 15 26 mph 1009.9mb 67f 74f
3:30am 15 20 mph 1010mb 67f 75f
3:24am 14 25 mph 1009.9mb 67f 74f
3:18am 16 22 mph 1009.8mb 67f 75f
3:06am 15 24 mph 1009.9mb 67f 75f
2:54am 15 20 mph 1010.2mb 67f 75f
2:48am 14 18 mph 1010.3mb 67f 75f
2:42am 15 18 mph 1010.3mb 67f 75f
2:36am 15 20 mph 1010.3mb 67f 75f
2:24am 16 25 mph 1010.4mb 67f 75f
2:18am 17 23 mph 1010.5mb 67f 75f
2:06am 14 20 mph 1010.6mb 67f 75f
1:54am 14 22 mph 1010.6mb 67f 75f
1:48am 15 20 mph 1010.6mb 67f 75f
1:36am 16 21 mph 1010.4mb 67f 75f
1:30am 14 20 mph 1010.5mb 67f 75f
1:18am 14 22 mph 1010.3mb 67f 75f
1:06am 13 17 mph 1010.4mb 67f 75f
1:00am 14 18 mph 1010.6mb 67f 75f
12:48am 10 15 mph 1010.7mb 67f 75f
12:36am 10 17 mph 1010.9mb 67f 75f
12:24am 11 17 mph 1010.9mb 67f 75f
12:12am 14 17 mph 1011.1mb 67f 75f
12:06am 13 17 mph 1011.1mb 67f 75f
12:00am 14 17 mph 1011mb 67f 75f
Tue 12/23 11:54pm 11 18 mph 1011mb 67f 75f
11:48pm 13 20 mph 1011.1mb 67f 75f
11:42pm 10 15 mph 1011.2mb 67f 75f
11:30pm 11 14 mph 1011.2mb 67f 75f
11:24pm 13 16 mph 1011.3mb 67f 74f
11:18pm 9 13 mph 1011.3mb 67f 74f
11:06pm 9 13 mph 1011.3mb 67f 74f
11:00pm 8 11 mph 1011.2mb 67f 74f
10:54pm 10 14 mph 1011.1mb 67f 74f
10:48pm 11 15 mph 1011.1mb 67f 74f
10:42pm 11 15 mph 1011mb 67f 74f
10:36pm 11 17 mph 1010.8mb 67f 75f
10:30pm 13 16 mph 1010.8mb 67f 75f
10:24pm 13 16 mph 1010.8mb 67f 75f
10:12pm 11 16 mph 1010.8mb 67f 75f
10:06pm 13 16 mph 1010.8mb 67f 75f
9:54pm 10 16 mph 1010.7mb 67f 75f
9:48pm 11 18 mph 1010.7mb 67f 75f
9:42pm 15 22 mph 1010.7mb 67f 75f
9:36pm 14 22 mph 1010.7mb 67f 75f
9:30pm 15 18 mph 1010.8mb 67f 75f
9:24pm 15 21 mph 1010.8mb 67f 75f
9:18pm 15 20 mph 1011mb 67f 75f
9:12pm 15 20 mph 1011mb 67f 75f
9:06pm 14 20 mph 1011mb 67f 75f
8:54pm 16 21 mph 1010.7mb 67f 76f
8:48pm 15 22 mph 1010.9mb 67f 76f
8:36pm 15 22 mph 1010.9mb 67f 76f
8:30pm 16 22 mph 1011mb 67f 76f
8:18pm 13 18 mph 1011.2mb 67f 75f
8:12pm 13 17 mph 1011.3mb 67f 75f
8:06pm 11 16 mph 1011.2mb 67f 75f
8:00pm 17 22 mph 1010.8mb 67f 75f
7:54pm 14 20 mph 1011.1mb 67f 75f
7:48pm 11 21 mph 1011.4mb 67f 75f
7:42pm 13 20 mph 1011.2mb 67f 75f
7:30pm 17 21 mph 1011.2mb 67f 75f
7:18pm 11 15 mph 1011.1mb 67f 75f
7:12pm 13 17 mph 1011.1mb 67f 75f
7:06pm 15 20 mph 1011mb 67f 75f
7:00pm 15 21 mph 1011mb 67f 75f
6:48pm 13 21 mph 1011.1mb 67f 75f
6:42pm 14 17 mph 1011.1mb 67f 75f
6:36pm 13 20 mph 1011.1mb 67f 75f
6:24pm 14 21 mph 1011.3mb 67f 75f
6:18pm 15 21 mph 1011.2mb 67f 75f
6:06pm 20 24 mph 1011.1mb 67f 75f
6:00pm 16 24 mph 1011mb 67f 75f
5:54pm 16 25 mph 1010.9mb 67f 75f
5:48pm 20 25 mph 1011mb 67f 75f
5:42pm 21 25 mph 1010.9mb 66f 75f
5:30pm 17 21 mph 1010.9mb 66f 76f
5:24pm 14 21 mph 1010.9mb 66f 76f
5:18pm 18 22 mph 1010.9mb 66f 76f
5:12pm 18 23 mph 1010.9mb 66f 76f
5:06pm 17 23 mph 1010.9mb 66f 76f
5:00pm 17 22 mph 1010.9mb 66f 76f
4:54pm 16 21 mph 1010.9mb 66f 76f
4:48pm 18 26 mph 1010.9mb 66f 76f
4:42pm 15 20 mph 1010.9mb 66f 76f
4:36pm 20 23 mph 1010.8mb 66f 77f
4:30pm 18 25 mph 1010.8mb 66f 77f
4:24pm 18 22 mph 1010.8mb 66f 77f
4:18pm 20 25 mph 1010.8mb 66f 78f
4:12pm 20 24 mph 1010.8mb 66f 78f
4:06pm 20 24 mph 1010.6mb 66f 77f
4:00pm 21 24 mph 1010.5mb 66f 77f
3:54pm 18 26 mph 1010.6mb 66f 77f
3:48pm 15 21 mph 1010.6mb 66f 77f
3:42pm 11 21 mph 1010.7mb 66f 78f
3:36pm 14 25 mph 1010.7mb 66f 78f
3:30pm 17 23 mph 1010.8mb 66f 78f
3:24pm 18 25 mph 1010.8mb 66f 77f
3:18pm 21 26 mph 1010.9mb 66f 77f
3:12pm 14 20 mph 1011mb 66f 77f
3:06pm 16 21 mph 1010.9mb 66f 76f
3:00pm 15 24 mph 1010.7mb 66f 77f
2:54pm 22 26 mph 1010.7mb 66f 77f
2:48pm 21 28 mph 1010.8mb 66f 77f
2:42pm 21 28 mph 1010.8mb 66f 77f
2:36pm 16 23 mph 1010.9mb 66f 77f
2:30pm 16 21 mph 1010.9mb 66f 77f
2:24pm 20 23 mph 1010.9mb 66f 77f
2:18pm 15 21 mph 1010.9mb 66f 77f
2:12pm 17 22 mph 1011mb 66f 77f
2:06pm 18 23 mph 1011.1mb 66f 76f
2:00pm 16 23 mph 1011.2mb 66f 76f
1:54pm 15 20 mph 1011.3mb 66f 76f
1:48pm 15 23 mph 1011.4mb 66f 76f
1:42pm 16 23 mph 1011.5mb 66f 76f
1:36pm 14 18 mph 1011.4mb 66f 76f
1:30pm 17 21 mph 1011.4mb 66f 76f
1:24pm 20 25 mph 1011.5mb 66f 76f
1:18pm 17 21 mph 1011.5mb 66f 76f
1:12pm 16 22 mph 1011.6mb 66f 76f
1:06pm 15 18 mph 1011.6mb 66f 76f
1:00pm 13 21 mph 1011.8mb 66f 76f
12:54pm 17 26 mph 1012.1mb 66f 76f
12:48pm 14 20 mph 1012mb 65f 76f
12:42pm 14 22 mph 1012.1mb 66f 76f
12:36pm 17 24 mph 1012.3mb 66f 76f
12:30pm 14 21 mph 1012.6mb 65f 76f
12:24pm 16 22 mph 1012.5mb 66f 76f
12:18pm 16 22 mph 1012.6mb 65f 76f
12:12pm 16 21 mph 1012.7mb 66f 76f
12:06pm 11 17 mph 1012.8mb 65f 76f
12:00pm 13 20 mph 1012.8mb 66f 76f
11:48am 14 23 mph 1012.8mb 66f 75f
11:42am 13 20 mph 1012.8mb 66f 75f
11:36am 16 22 mph 1012.9mb 66f 75f
11:30am 11 22 mph 1012.9mb 66f 75f
11:24am 14 20 mph 1013mb 66f 75f
11:18am 13 16 mph 1013.1mb 66f 75f
11:12am 10 16 mph 1013.1mb 66f 74f
11:06am 11 16 mph 1013.2mb 66f 74f
11:00am 11 15 mph 1013.2mb 66f 74f
10:54am 11 15 mph 1013.3mb 66f 74f
10:48am 13 17 mph 1013.4mb 66f 74f
10:42am 11 15 mph 1013.6mb 66f 74f
10:36am 13 18 mph 1013.7mb 66f 73f
10:30am 11 15 mph 1013.8mb 66f 73f
10:24am 10 16 mph 1013.8mb 66f 73f
10:18am 10 16 mph 1013.7mb 66f 73f
10:12am 9 17 mph 1013.5mb 66f 73f
10:06am 11 14 mph 1013.5mb 66f 73f
10:00am 10 15 mph 1013.6mb 66f 72f
9:54am 10 15 mph 1013.7mb 66f 72f
9:48am 10 16 mph 1013.8mb 66f 72f
9:42am 11 15 mph 1013.8mb 66f 72f
9:36am 10 14 mph 1013.7mb 66f 72f
9:30am 10 14 mph 1013.6mb 66f 72f
9:24am 10 14 mph 1013.5mb 66f 72f
9:18am 9 13 mph 1013.3mb 66f 72f
9:12am 7 10 mph 1013.1mb 66f 72f
9:06am 7 13 mph 1013mb 66f 71f
9:00am 8 13 mph 1012.8mb 66f 71f
8:54am 9 14 mph 1012.7mb 66f 71f
8:48am 10 14 mph 1012.5mb 65f 71f
8:36am 10 15 mph 1012.7mb 65f 72f
8:30am 9 13 mph 1012.7mb 65f 71f
8:24am 9 13 mph 1012.9mb 65f 71f
8:18am 8 13 mph 1012.9mb 65f 71f
8:12am 8 11 mph 1012.9mb 65f 71f
8:06am 9 13 mph 1012.8mb 65f 71f
7:54am 9 13 mph 1012.8mb 65f 71f
7:48am 8 15 mph 1012.9mb 65f 71f
7:42am 9 13 mph 1012.9mb 65f 71f
7:36am 7 14 mph 1012.7mb 65f 71f
7:24am 10 14 mph 1012.8mb 65f 71f
7:18am 9 15 mph 1012.8mb 65f 71f
7:06am 10 14 mph 1012.6mb 65f 71f
7:00am 9 15 mph 1012.6mb 65f 71f
6:54am 13 16 mph 1012.6mb 66f 71f
6:48am 10 15 mph 1012.6mb 66f 71f
6:42am 11 15 mph 1012.6mb 66f 71f
6:36am 11 17 mph 1012.4mb 66f 71f
6:30am 11 17 mph 1012mb 65f 71f
6:24am 14 17 mph 1012mb 65f 71f
6:12am 16 20 mph 1012.1mb 65f 71f
6:06am 14 18 mph 1012.2mb 65f 71f
6:00am 14 20 mph 1012.3mb 65f 71f
5:54am 14 20 mph 1012.3mb 65f 71f
5:48am 14 17 mph 1012.4mb 65f 71f
5:42am 13 16 mph 1012.3mb 65f 71f
5:36am 11 14 mph 1012.1mb 65f 71f
5:30am 10 18 mph 1011.9mb 65f 71f
5:24am 14 20 mph 1011.9mb 65f 71f
5:18am 15 18 mph 1012mb 65f 71f
5:12am 14 18 mph 1011.9mb 65f 70f
5:00am 15 21 mph 1011.6mb 65f 70f
4:54am 15 18 mph 1011.7mb 65f 70f
4:48am 14 21 mph 1011.7mb 65f 70f
4:36am 13 15 mph 1011.8mb 65f 70f
4:30am 11 16 mph 1011.7mb 65f 70f
4:18am 10 14 mph 1012mb 65f 70f
4:12am 10 13 mph 1012mb 65f 70f
4:06am 11 13 mph 1012mb 65f 70f
4:00am 11 16 mph 1011.9mb 65f 71f
3:54am 11 17 mph 1011.9mb 65f 71f
3:42am 14 17 mph 1011.9mb 65f 71f
3:36am 15 18 mph 1012.1mb 65f 71f
3:30am 15 18 mph 1012mb 65f 71f
3:24am 16 20 mph 1012.2mb 65f 71f
3:18am 13 17 mph 1012.1mb 65f 71f
3:12am 15 18 mph 1012.3mb 65f 71f
3:06am 14 18 mph 1012.3mb 65f 71f
3:00am 14 22 mph 1012.5mb 65f 71f
2:54am 13 16 mph 1012.5mb 65f 70f
2:42am 9 15 mph 1012.7mb 65f 71f
2:36am 10 15 mph 1012.6mb 65f 71f
2:24am 9 11 mph 1012.6mb 65f 71f
2:18am 10 13 mph 1012.6mb 65f 71f
2:12am 8 10 mph 1012.6mb 65f 71f
2:00am 6 8 mph 1012.7mb 65f 71f
1:54am 7 8 mph 1012.6mb 65f 71f
1:48am 9 10 mph 1012.8mb 65f 71f
1:42am 9
mph
1012.8mb 65f 71f
1:36am 9 11 mph 1012.7mb 65f 71f
1:24am 8 10 mph 1012.8mb 65f 71f
1:18am 9 14 mph 1012.8mb 66f 71f
1:12am 8 11 mph 1012.7mb 66f 71f
1:06am 9 13 mph 1012.8mb 65f 71f
12:54am 8 11 mph 1012.9mb 66f 71f
12:42am 9 13 mph 1013.2mb 65f 71f
12:36am 10 13 mph 1013.3mb 65f 71f
12:30am 10 14 mph 1013.2mb 65f 71f
12:24am 11 14 mph 1013.3mb 65f 71f
12:18am 10 13 mph 1013.3mb 65f 71f
12:12am 11 14 mph 1013.3mb 65f 71f
12:06am 10 14 mph 1013.2mb 66f 71f
12:00am 11 15 mph 1013.4mb 65f 72f
Mon 12/22 11:54pm 14 16 mph 1013.4mb 65f 72f
11:48pm 11 15 mph 1013.5mb 65f 71f
11:42pm 13 17 mph 1013.4mb 65f 71f
11:36pm 15 17 mph 1013.4mb 65f 72f
11:30pm 13 15 mph 1013.5mb 65f 72f
11:24pm 11 15 mph 1013.5mb 65f 72f
11:12pm 8 13 mph 1013.4mb 65f 71f
11:06pm 9 14 mph 1013.5mb 65f 71f
10:54pm 10 14 mph 1013.3mb 65f 71f
10:48pm 11 15 mph 1013.3mb 66f 71f
10:42pm 10 14 mph 1013.4mb 66f 71f
10:36pm 11 15 mph 1013.4mb 66f 71f
10:30pm 11 14 mph 1013.4mb 66f 71f
10:24pm 9 15 mph 1013.6mb 66f 71f
10:12pm 10 14 mph 1013.6mb 66f 72f
10:06pm 11 16 mph 1013.6mb 66f 72f
9:54pm 11 16 mph 1013.6mb 66f 72f
9:48pm 11 15 mph 1013.7mb 66f 72f
9:42pm 11 15 mph 1013.6mb 66f 72f
9:36pm 11 15 mph 1013.6mb 66f 72f
9:30pm 11 17 mph 1013.5mb 66f 72f
9:24pm 14 17 mph 1013.4mb 66f 72f
9:18pm 13 15 mph 1013.4mb 66f 72f
9:12pm 13 17 mph 1013.4mb 66f 72f
9:06pm 11 17 mph 1013.5mb 66f 72f
9:00pm 14 15 mph 1013.5mb 66f 72f
8:54pm 11 16 mph 1013.4mb 66f 72f
8:48pm 11 18 mph 1013.4mb 66f 72f
8:42pm 14 17 mph 1013.2mb 66f 72f
8:36pm 14 20 mph 1013.1mb 66f 72f
8:30pm 15 20 mph 1013.2mb 66f 72f
8:24pm 15 20 mph 1013.3mb 66f 72f
8:18pm 13 20 mph 1013.3mb 66f 72f
8:12pm 15 20 mph 1013.2mb 66f 72f
8:00pm 20 22 mph 1012.8mb 66f 72f
7:54pm 16 22 mph 1012.7mb 66f 72f
7:48pm 15 22 mph 1012.7mb 66f 72f
7:42pm 15 21 mph 1012.8mb 66f 72f
7:36pm 16 21 mph 1012.7mb 66f 72f
7:30pm 16 21 mph 1012.8mb 66f 72f
7:24pm 16 21 mph 1012.7mb 66f 72f
7:18pm 16 21 mph 1012.8mb 66f 73f
7:06pm 15 22 mph 1012.8mb 66f 72f
7:00pm 15 21 mph 1012.7mb 66f 72f
6:54pm 16 18 mph 1012.7mb 66f 72f
6:48pm 16 21 mph 1012.6mb 66f 72f
6:36pm 15 21 mph 1012.5mb 66f 73f
6:30pm 15 20 mph 1012.4mb 66f 73f
6:24pm 15 21 mph 1012.5mb 66f 73f
6:18pm 16 21 mph 1012.6mb 66f 73f
6:06pm 16 22 mph 1012.4mb 66f 73f
6:00pm 15 20 mph 1012.4mb 66f 73f
5:54pm 15 20 mph 1012.4mb 66f 72f
5:48pm 17 21 mph 1012.3mb 66f 73f
5:36pm 17 21 mph 1012.4mb 65f 72f
5:30pm 17 21 mph 1012.4mb 65f 72f
5:24pm 15 22 mph 1012.4mb 65f 72f
5:12pm 16 22 mph 1012.4mb 65f 73f
5:00pm 17 22 mph 1012.4mb 65f 73f
4:54pm 16 21 mph 1012.3mb 65f 73f
4:48pm 16 21 mph 1012.2mb 65f 73f
4:42pm 17 23 mph 1012.2mb 65f 73f
4:36pm 17 23 mph 1012.2mb 65f 73f
4:30pm 17 23 mph 1012.2mb 65f 73f
4:24pm 17 21 mph 1012.3mb 65f 73f
4:18pm 16 20 mph 1012.3mb 65f 73f
4:12pm 16 22 mph 1012.2mb 65f 73f
4:06pm 17 22 mph 1012.2mb 65f 73f
4:00pm 17 22 mph 1012.2mb 65f 73f
3:54pm 15 20 mph 1012.2mb 65f 73f
3:48pm 17 22 mph 1012.1mb 65f -
3:42pm 15 20 mph 1012.1mb 65f 73f
3:36pm 17 22 mph 1012.1mb 65f 74f
3:30pm 17 21 mph 1012.1mb 65f 74f
3:24pm 15 21 mph 1012.1mb 65f 74f
3:18pm 17 23 mph 1012mb 65f 74f
3:12pm 16 25 mph 1012.1mb 65f 74f
3:06pm 20 24 mph 1012.1mb 65f 74f
3:00pm 17 24 mph 1012.1mb 65f 73f
2:54pm 17 22 mph 1012.2mb 65f 73f
2:48pm 17 28 mph 1012.1mb 65f 73f
2:42pm 20 25 mph 1012.2mb 65f 73f
2:36pm 17 22 mph 1012.1mb 65f 73f
2:30pm 17 21 mph 1012.3mb 65f 73f
2:24pm 17 22 mph 1012.2mb 65f 73f
2:18pm 20 23 mph 1012.3mb 65f 73f
2:12pm 20 22 mph 1012.3mb 65f 73f
2:06pm 17 22 mph 1012.3mb 65f 73f
2:00pm 17 22 mph 1012.3mb 65f 73f
1:54pm 16 22 mph 1012.3mb 65f 73f
1:48pm 17 22 mph 1012.4mb 65f 73f
1:42pm 17 22 mph 1012.4mb 65f 73f
1:36pm 20 23 mph 1012.4mb 65f 73f
1:30pm 17 23 mph 1012.4mb 65f 73f
1:24pm 21 25 mph 1012.5mb 65f 73f
1:18pm 20 23 mph 1012.7mb 65f 73f
1:12pm 15 23 mph 1012.9mb 65f 73f
1:06pm 18 23 mph 1012.9mb 64f 73f
1:00pm 17 22 mph 1013mb 64f 73f
12:54pm 17 24 mph 1013.2mb 65f 73f
12:48pm 21 26 mph 1013.4mb 64f 73f
12:42pm 18 22 mph 1013.5mb 64f 72f
12:36pm 17 22 mph 1013.6mb 64f 72f
12:30pm 18 24 mph 1013.7mb 64f 72f
12:18pm 21 26 mph 1014mb 64f 72f
12:12pm 21 29 mph 1014.2mb 64f 72f
12:06pm 18 23 mph 1014.2mb 64f 72f
12:00pm 18 23 mph 1014.2mb 64f 72f
11:54am 18 28 mph 1014.5mb 64f 72f
11:48am 17 23 mph 1014.6mb 64f 72f
11:42am 16 22 mph 1014.6mb 64f 72f
11:36am 15 21 mph 1014.7mb 64f 72f
11:30am 14 18 mph 1014.8mb 64f 72f
11:24am 14 20 mph 1015mb 64f 72f
11:18am 15 20 mph 1015mb 64f 71f
11:12am 14 18 mph 1015mb 64f 71f
11:06am 13 16 mph 1015mb 64f 71f
11:00am 13 22 mph 1015mb 64f 71f
10:54am 14 20 mph 1015mb 64f 71f
10:48am 16 21 mph 1014.9mb 64f 71f
10:42am 15 21 mph 1015mb 64f 71f
10:36am 15 22 mph 1014.9mb 64f 71f
10:30am 15 21 mph 1015.1mb 64f 71f
10:24am 17 23 mph 1015.1mb 64f 71f
10:18am 15 20 mph 1015.2mb 64f 71f
10:12am 13 15 mph 1015.4mb 64f 71f
10:06am 10 15 mph 1015.3mb 64f 71f
10:00am 11 14 mph 1015.3mb 64f 71f
9:54am 13 18 mph 1015.2mb 64f 71f
9:48am 10 15 mph 1015.1mb 64f 71f
9:42am 11 16 mph 1015.1mb 64f 70f
9:36am 9 14 mph 1015.1mb 64f 70f
9:30am 11 14 mph 1015.2mb 64f 70f
9:24am 9 13 mph 1015.1mb 64f 69f
9:18am 10 13 mph 1015.1mb 64f 69f
9:12am 9 14 mph 1015.1mb 64f 68f
9:06am 11 13 mph 1015.2mb 64f 68f
9:00am 9 14 mph 1015.2mb 64f 68f
8:54am 10 14 mph 1015.3mb 64f 68f
8:48am 9 13 mph 1015.2mb 64f 68f
8:42am 8 11 mph 1015.3mb 64f 67f
8:36am 8 10 mph 1015.2mb 64f 67f
8:30am 7 10 mph 1015.2mb 64f 67f
8:24am 8 10 mph 1015.2mb 64f 67f
8:18am 7 10 mph 1015.1mb 64f 67f
8:12am 7 13 mph 1015mb 64f 67f
8:06am 8 11 mph 1015mb 64f 67f
8:00am 8 11 mph 1015mb 64f 67f
7:54am 9 10 mph 1015.1mb 64f 67f
7:48am 7 11 mph 1015mb 64f 67f
7:36am 8 11 mph 1014.9mb 64f 67f
7:30am 8 10 mph 1015mb 64f 67f
7:24am 7 9 mph 1015mb 64f 67f
7:18am 8 9 mph 1015.1mb 64f 67f
7:12am 6 8 mph 1014.9mb 64f 67f
7:00am 6 7 mph 1014.9mb 64f 67f
6:48am 5 7 mph 1014.9mb 64f 67f
6:36am 6 8 mph 1014.9mb 64f 67f
6:30am 6 8 mph 1014.7mb 64f 67f
6:18am 6 9 mph 1014.4mb 64f 67f
6:12am 7 9 mph 1014.6mb 64f 67f
6:00am 6 8 mph 1014.3mb 64f 67f
5:54am 7 9 mph 1014.3mb 64f 67f
5:48am 6 8 mph 1014.1mb 64f 67f
5:36am 7 9 mph 1013.8mb 64f 67f
5:30am 6 7 mph 1014mb 64f 67f
5:18am 5 8 mph 1013.7mb 64f 67f
5:12am 7 11 mph 1013.7mb 64f 67f
5:06am 8 10 mph 1013.8mb 64f 67f
4:54am 6 11 mph 1014mb 64f 67f
4:48am 7 10 mph 1014.2mb 64f 67f
4:36am 7 10 mph 1014.4mb 64f 67f
4:30am 7 8 mph 1014.5mb 64f 67f
4:18am 8 10 mph 1014.4mb 64f 67f
4:06am 7 9 mph 1014.1mb 64f 67f
4:00am 7 9 mph 1014.2mb 64f 67f
3:54am 7 8 mph 1014.4mb 64f 67f
3:42am 7 8 mph 1014.5mb 64f 68f
3:30am 6 7 mph 1014.7mb 64f 68f
3:24am 7 9 mph 1014.6mb 64f 68f
3:18am 7 8 mph 1014.9mb 64f 68f
3:12am 6 8 mph 1014.8mb 64f 68f
3:06am 8 11 mph 1014.8mb 64f 68f
3:00am 8 10 mph 1015mb 64f 68f
2:54am 8 9 mph 1014.9mb 64f 68f
2:48am 7 9 mph 1015mb 64f 68f
2:42am 7 8 mph 1015mb 64f 68f
2:36am 7 9 mph 1014.9mb 64f 67f
2:30am 6 8 mph 1015.3mb 64f 67f
2:24am 8 9 mph 1015.3mb 64f 68f
2:18am 6 8 mph 1015.2mb 64f 68f
2:12am 6 8 mph 1015.1mb 64f 67f
2:00am 7 9 mph 1015.1mb 64f 68f
1:54am 8 10 mph 1015.2mb 64f 68f
1:48am 8 10 mph 1015.4mb 64f 68f
1:36am 9 11 mph 1015.4mb 64f 68f
1:30am 9 10 mph 1015.5mb 64f 68f
1:24am 8 11 mph 1015.6mb 64f 68f
1:18am 9 10 mph 1015.6mb 64f 68f
1:06am 8 11 mph 1015.7mb 64f 67f
1:00am 9 13 mph 1015.9mb 64f 67f
12:54am 6 10 mph 1015.8mb 64f 67f
12:48am 8 9 mph 1015.8mb 64f 67f
12:42am 7 9 mph 1015.9mb 64f 68f
12:30am 9 14 mph 1015.8mb 65f 68f
12:24am 10 14 mph 1016mb 65f 67f